Location: *
(28.3744°N, 81.5492°W)
Time: 03:20:48
(UTC+00:00)

Delta 2 Rocket - Pass Details

Date: 15 June 2025
Orbit: 371 x 557 km, 35.6° (Epoch: 11 July)

Event Time Altitude Azimuth Distance (km) Brightness Sun altitude
Rises 01:30:17 0° 296° (WNW) 2,546 8.6 -13.1°
Reaches altitude 10° 01:32:32 10° 304° (NW) 1,699 7.3 -13.5°
Maximum altitude 01:36:13 37° 14° (NNE) 811 4.4 -14.2°
Enters shadow 01:39:20 14° 78° (ENE) 1,529 5.2 -14.7°
